sat.trackr.live / text

‹ back to catalog

STARLINK-31776

NORAD 59603 · 2024-080C

PAYLOAD ACTIVE UNKNOWN

§ Identity

Operator
Country
US
Launch date
2024-04-28
Launch site
AFETR
Launch vehicle
Mass (kg)
RCS (m²)

Purposes: comms

External: N2YO · Heavens-Above · Gunter

§ Orbital elements

Epoch: 2026-09-21T08:27:07.727328Z

Period
94.27 min
Inclination
43.0008°
Eccentricity
0.0000899
Mean motion
15.27599782 rev/d
Perigee alt
482.4 km
Apogee alt
483.6 km
Semi-major
6,861.1 km
B*
-1.9147e-4
RAAN
16.6314°
Arg perigee
287.9048°
Mean anomaly
72.1706°
Rev number
13,441

§ Raw data

STARLINK-317761 59603U 24080C   26264.35217277 -.00005530  00000+0 -19147-3 0  99902 59603  43.0008  16.6314 0000899 287.9048  72.1706 15.27599782134416

JSON: /api/v1/satellites/59603 · /tle

For live sub-satellite position, see the globe view (requires WebGL).

§ Visibility from observer

Set your observer location to see the next 7 days of passes ≥ 10°. The values pass through the URL so the page stays shareable.

No JS? Fill the form by hand. The geolocation button needs JavaScript.